period_start,C,m1,H,J0,J1,J2,J3,J4,J5,JA,JB,JC,JD,JJ,JK,JN,#
2016-05-24 00:04:54,0.05,1.15,0.00,19.89,25.12,28.39,14.77,50.86,1012.71,2044.57,3063.47,2859.00,3168.82,600.49,600.53,26.42,0000 0000 0000 0000 000000
2016-05-24 00:09:55,0.03,1.15,0.00,19.90,25.10,28.39,14.71,50.78,1012.71,2044.89,3063.10,2858.99,3168.45,600.07,600.08,26.47,0000 0000 0000 0000 000000
2016-05-24 00:14:57,0.01,1.15,0.00,19.90,25.08,28.38,14.71,50.89,1012.73,2044.97,3062.99,2858.97,3168.10,599.76,599.74,26.52,0000 0000 0000 0000 000000
2016-05-24 00:19:58,0.02,1.15,0.00,19.91,25.06,28.35,14.69,51.03,1012.73,2044.98,3062.80,2858.66,3168.04,599.70,599.71,26.57,0000 0000 0000 0000 000000
2016-05-24 00:24:59,0.02,1.15,0.00,19.91,25.05,28.34,14.65,51.01,1012.73,2044.99,3062.19,2858.10,3167.97,599.42,599.59,26.62,0000 0000 0000 0000 000000
2016-05-24 00:30:00,0.01,1.16,0.00,19.91,25.03,28.33,14.76,51.00,1012.73,2044.99,3061.93,2858.00,3167.38,600.00,600.05,26.67,0000 0000 0000 0000 000000
2016-05-24 00:35:01,0.01,1.16,0.00,19.90,25.02,28.29,14.82,51.08,1012.72,2044.99,3061.26,2857.99,3167.04,600.32,600.26,26.72,0000 0000 0000 0000 000000
2016-05-24 00:40:02,0.02,1.16,0.00,19.88,25.00,28.25,14.70,50.63,1012.72,2044.99,3061.00,2857.60,3166.91,599.80,599.87,26.77,0000 0000 0000 0000 000000
2016-05-24 00:45:03,0.02,1.16,0.00,19.88,25.00,28.27,14.79,51.04,1012.73,2045.01,3060.68,2857.08,3166.38,600.00,600.07,26.82,0000 0000 0000 0000 000000
2016-05-24 00:50:05,0.02,1.16,0.00,19.88,24.97,28.27,14.76,50.93,1012.74,2045.02,3060.03,2857.00,3166.01,599.99,599.97,26.87,0000 0000 0000 0000 000000
2016-05-24 00:55:06,0.03,1.16,0.00,19.86,24.97,28.23,14.70,50.87,1012.72,2045.03,3059.42,2856.89,3165.49,600.20,600.13,26.92,0000 0000 0000 0000 000000
2016-05-24 01:00:07,0.04,1.16,0.00,19.87,24.97,28.23,14.75,51.00,1012.72,2045.09,3058.87,2856.16,3164.97,600.08,600.15,26.97,0000 0000 0000 0000 000000
2016-05-24 01:05:09,0.03,1.17,0.00,19.86,24.96,28.20,14.74,51.03,1012.73,2045.10,3058.05,2855.99,3164.30,600.19,600.28,27.02,0000 0000 0000 0000 000000
2016-05-24 01:10:10,0.02,1.17,0.00,19.88,24.95,28.16,14.68,50.95,1012.73,2045.10,3057.73,2855.73,3163.99,599.58,599.77,27.07,0000 0000 0000 0000 000000
2016-05-24 01:15:11,0.04,1.17,0.00,19.88,24.95,28.10,14.73,51.06,1012.72,2045.14,3056.98,2855.04,3163.31,600.20,600.20,27.12,0000 0000 0000 0000 000000
2016-05-24 01:20:12,0.02,1.17,0.00,19.88,24.95,28.04,14.79,51.11,1012.73,2045.16,3056.28,2854.98,3162.94,600.11,600.15,27.17,0000 0000 0000 0000 000000
2016-05-24 01:25:14,0.06,1.17,0.00,19.89,24.95,27.97,14.65,50.87,1012.73,2045.22,3055.86,2854.39,3162.22,599.72,599.77,27.22,0000 0000 0000 0000 000000
2016-05-24 01:30:15,0.02,1.17,0.00,19.89,24.94,27.95,14.75,51.05,1012.72,2045.37,3055.25,2854.01,3161.88,599.94,600.04,27.27,0000 0000 0000 0000 000000
2016-05-24 01:35:16,0.03,1.18,0.00,19.90,24.93,27.97,14.71,50.94,1012.71,2045.38,3054.72,2853.95,3161.11,600.01,600.05,27.32,0000 0000 0000 0000 000000
2016-05-24 01:40:18,0.06,1.18,0.00,19.92,24.93,27.92,14.72,51.04,1012.71,2045.50,3054.00,2853.25,3160.70,600.02,600.01,27.37,0000 0000 0000 0000 000000
2016-05-24 01:45:19,0.02,1.18,0.00,19.93,24.92,27.91,14.73,50.94,1012.72,2045.55,3053.37,2853.00,3160.02,599.87,599.96,27.42,0000 0000 0000 0000 000000
2016-05-24 01:50:20,0.06,1.18,0.00,19.96,24.92,27.89,14.67,50.85,1012.72,2045.66,3052.84,2852.63,3159.51,599.88,599.60,27.47,0000 0000 0000 0000 000000
2016-05-24 01:55:22,0.03,1.18,0.00,19.97,24.92,27.88,14.70,50.95,1012.72,2045.73,3052.10,2852.03,3158.87,599.67,599.50,27.52,0000 0000 0000 0000 000000
2016-05-24 02:00:23,0.04,1.19,0.00,19.99,24.92,27.87,14.61,50.84,1012.72,2045.76,3051.30,2851.93,3158.06,599.69,599.58,27.57,0000 0000 0000 0000 000000
2016-05-24 02:05:24,0.03,1.19,0.00,19.99,24.92,27.86,14.70,51.00,1012.73,2045.73,3050.68,2851.18,3157.48,600.20,600.08,27.62,0000 0000 0000 0000 000000
2016-05-24 02:10:25,0.05,1.19,0.00,20.00,24.92,27.84,14.64,50.80,1012.72,2045.90,3049.93,2850.99,3156.82,599.64,599.55,27.67,0000 0000 0000 0000 000000
2016-05-24 02:15:27,0.04,1.19,0.00,20.02,24.92,27.85,14.77,50.77,1012.72,2045.91,3049.12,2850.51,3156.04,600.09,599.89,27.72,0000 0000 0000 0000 000000
2016-05-24 02:20:28,0.03,1.19,0.00,20.04,24.92,27.85,14.71,50.98,1012.74,2045.88,3048.31,2850.00,3155.25,600.10,599.84,27.77,0000 0000 0000 0000 000000
2016-05-24 02:25:29,0.05,1.20,0.00,20.06,24.92,27.84,14.67,50.88,1012.74,2045.96,3047.47,2849.68,3154.52,599.71,599.28,27.82,0000 0000 0000 0000 000000
2016-05-24 02:30:30,0.03,1.20,0.00,20.07,24.92,27.83,14.72,50.90,1012.73,2045.92,3046.65,2849.03,3153.78,599.91,599.55,27.87,0000 0000 0000 0000 000000
2016-05-24 02:35:32,0.05,1.20,0.00,20.09,24.92,27.84,14.69,51.05,1012.73,2045.97,3045.72,2848.68,3152.91,599.86,599.38,27.92,0000 0000 0000 0000 000000
2016-05-24 02:40:33,0.04,1.20,0.00,20.10,24.92,27.85,14.66,50.85,1012.73,2045.97,3044.85,2848.02,3152.04,600.17,599.81,27.97,0000 0000 0000 0000 000000
2016-05-24 02:45:34,0.04,1.21,0.00,20.12,24.93,27.85,14.75,51.09,1012.72,2045.96,3044.01,2847.63,3151.22,600.17,599.89,28.02,0000 0000 0000 0000 000000
2016-05-24 02:50:36,0.04,1.21,0.00,20.13,24.94,27.84,14.75,50.74,1012.72,2045.97,3043.16,2847.02,3150.43,600.33,599.82,28.07,0000 0000 0000 0000 000000
2016-05-24 02:55:37,0.05,1.21,0.00,20.16,24.95,27.86,14.71,50.88,1012.72,2045.97,3042.39,2846.60,3149.60,599.97,599.49,28.12,0000 0000 0000 0000 000000
2016-05-24 03:00:39,0.03,1.21,0.00,20.17,24.95,27.88,14.75,51.04,1012.72,2045.95,3041.49,2846.01,3148.74,600.21,599.45,28.17,0000 0000 0000 0000 000000
2016-05-24 03:05:40,0.04,1.21,0.00,20.18,24.95,27.88,14.66,50.85,1012.71,2045.93,3040.62,2845.47,3147.99,599.45,598.93,28.23,0000 0000 0000 0000 000000
2016-05-24 03:10:42,0.03,1.22,0.00,20.19,24.95,27.86,14.70,50.93,1012.71,2045.95,3039.89,2845.01,3147.14,599.97,599.40,28.28,0000 0000 0000 0000 000000
2016-05-24 03:15:43,0.04,1.22,0.00,20.20,24.97,27.88,14.72,50.92,1012.72,2045.94,3039.05,2844.66,3146.38,600.06,599.43,28.33,0000 0000 0000 0000 000000
2016-05-24 03:20:44,0.02,1.22,0.00,20.21,24.97,27.89,14.63,50.57,1012.75,2045.88,3038.54,2844.02,3145.90,599.91,599.29,28.38,0000 0000 0000 0000 000000
2016-05-24 03:25:45,0.02,1.22,0.00,20.23,24.97,27.90,14.70,50.87,1012.75,2045.86,3037.96,2843.91,3145.20,600.00,599.46,28.43,0000 0000 0000 0000 000000
2016-05-24 03:30:47,0.04,1.22,0.00,20.23,24.97,27.91,14.64,50.84,1012.75,2045.86,3037.25,2843.17,3144.72,599.85,599.23,28.48,0000 0000 0000 0000 000000
2016-05-24 03:35:48,0.02,1.23,0.00,20.26,24.98,27.93,14.65,50.83,1012.73,2045.86,3036.72,2842.98,3144.02,600.06,599.23,28.53,0000 0000 0000 0000 000000
2016-05-24 03:40:49,0.05,1.23,0.00,20.29,25.00,27.94,14.65,50.88,1012.76,2045.85,3036.00,2842.35,3143.18,599.46,598.89,28.58,0000 0000 0000 0000 000000
2016-05-24 03:45:51,0.01,1.23,0.00,20.30,25.00,27.93,14.67,50.88,1012.77,2045.81,3035.24,2842.00,3142.69,600.06,599.28,28.63,0000 0000 0000 0000 000000
2016-05-24 03:50:52,0.03,1.23,0.00,20.31,25.02,27.96,14.61,50.66,1012.75,2045.53,3034.50,2841.38,3141.97,599.59,598.75,28.68,0000 0000 0000 0000 000000
2016-05-24 03:55:53,0.01,1.23,0.00,20.33,25.02,27.97,14.68,50.77,1012.74,2045.46,3033.88,2841.00,3141.29,599.80,598.89,28.73,0000 0000 0000 0000 000000
2016-05-24 04:00:55,0.05,1.23,0.00,20.35,25.04,27.98,14.65,50.68,1012.73,2045.45,3033.10,2840.51,3140.58,599.69,598.84,28.78,0000 0000 0000 0000 000000
2016-05-24 04:05:56,0.00,1.23,0.00,20.36,25.05,27.99,14.66,50.63,1012.74,2045.15,3032.50,2839.98,3139.76,599.83,598.95,28.83,0000 0000 0000 0000 000000
2016-05-24 04:10:57,0.04,1.24,0.00,20.39,25.06,28.00,14.69,50.77,1012.73,2045.05,3031.71,2839.27,3139.02,599.96,599.00,28.88,0000 0000 0000 0000 000000
2016-05-24 04:15:59,0.04,1.24,0.00,20.40,25.07,28.01,14.61,50.72,1012.74,2045.05,3030.83,2838.94,3138.23,599.88,598.89,28.93,0000 0000 0000 0000 000000
2016-05-24 04:21:00,0.04,1.24,0.00,20.40,25.09,28.02,14.74,51.02,1012.72,2045.03,3029.99,2838.14,3137.52,600.04,599.07,28.98,0000 0000 0000 0000 000000
2016-05-24 04:26:01,0.03,1.24,0.00,20.42,25.10,28.04,14.71,50.75,1012.73,2045.03,3029.28,2837.86,3136.86,599.75,598.72,29.03,0000 0000 0000 0000 000000
2016-05-24 04:31:02,0.04,1.24,0.00,20.44,25.12,28.06,14.68,50.86,1012.75,2045.01,3028.53,2837.09,3136.01,599.72,598.66,29.08,0000 0000 0000 0000 000000
2016-05-24 04:36:04,0.04,1.25,0.00,20.45,25.12,28.09,14.70,50.90,1012.81,2045.00,3027.54,2836.76,3135.14,600.11,599.09,29.13,0000 0000 0000 0000 000000
2016-05-24 04:41:05,0.05,1.25,0.00,20.47,25.15,28.09,14.63,50.74,1012.95,2045.00,3026.53,2836.04,3134.27,599.55,598.52,29.18,0000 0000 0000 0000 000000
2016-05-24 04:46:07,0.05,1.25,0.00,20.48,25.16,28.10,14.62,50.98,1012.80,2045.00,3025.81,2835.51,3133.47,599.76,598.64,29.23,0000 0000 0000 0000 000000
2016-05-24 04:51:08,0.03,1.25,0.00,20.50,25.17,28.12,14.69,50.93,1012.76,2045.00,3025.01,2834.99,3132.75,599.90,598.80,29.28,0000 0000 0000 0000 000000
2016-05-24 04:56:09,0.06,1.26,0.00,20.51,25.18,28.12,14.67,50.93,1012.78,2044.99,3024.13,2834.31,3131.85,599.85,598.59,29.33,0000 0000 0000 0000 000000
2016-05-24 05:01:10,0.03,1.26,0.00,20.52,25.20,28.16,14.68,50.95,1012.73,2044.98,3023.39,2833.90,3131.05,599.99,598.85,29.38,0000 0000 0000 0000 000000
2016-05-24 05:06:11,0.05,1.26,0.00,20.54,25.22,28.14,14.56,50.82,1012.75,2044.99,3022.55,2833.10,3130.23,599.90,598.67,29.43,0000 0000 0000 0000 000000
2016-05-24 05:11:13,0.02,1.26,0.00,20.54,25.22,28.16,14.61,51.01,1012.83,2044.97,3021.89,2832.81,3129.63,599.76,598.54,29.48,0000 0000 0000 0000 000000
2016-05-24 05:16:14,0.04,1.27,0.00,20.56,25.25,28.18,14.76,50.94,1012.91,2044.96,3021.14,2832.06,3128.83,600.12,598.92,29.53,0000 0000 0000 0000 000000
2016-05-24 05:21:15,0.03,1.27,0.00,20.57,25.26,28.21,14.70,51.05,1012.78,2044.98,3020.43,2831.82,3128.07,600.42,599.11,29.58,0000 0000 0000 0000 000000
2016-05-24 05:26:17,0.03,1.27,0.00,20.58,25.27,28.21,14.67,51.12,1012.74,2044.84,3019.54,2831.06,3127.29,599.92,598.57,29.63,0000 0000 0000 0000 000000
2016-05-24 05:31:18,0.02,1.27,0.00,20.59,25.29,28.24,14.69,51.04,1012.72,2044.71,3018.93,2830.73,3126.56,599.97,598.55,29.68,0000 0000 0000 0000 000000
2016-05-24 05:36:19,0.02,1.27,0.00,20.61,25.30,28.25,14.63,50.67,1012.73,2044.59,3018.15,2830.06,3125.74,599.63,598.21,29.73,0000 0000 0000 0000 000000
2016-05-24 05:41:20,0.05,1.27,0.00,20.62,25.32,28.27,14.67,51.08,1012.73,2044.68,3017.22,2829.97,3125.01,600.04,598.65,29.78,0000 0000 0000 0000 000000
2016-05-24 05:46:21,0.01,1.28,0.00,20.63,25.32,28.28,14.64,50.92,1012.74,2044.60,3016.87,2829.32,3124.45,599.97,598.52,29.83,0000 0000 0000 0000 000000
2016-05-24 05:51:23,0.01,1.28,0.00,20.64,25.35,28.29,14.66,50.90,1012.79,2044.34,3016.10,2829.00,3123.89,599.82,598.38,29.88,0000 0000 0000 0000 000000
2016-05-24 05:56:24,0.04,1.28,0.00,20.66,25.35,28.31,14.75,51.11,1012.80,2044.33,3015.88,2828.59,3123.21,600.40,598.88,29.93,0000 0000 0000 0000 000000
2016-05-24 06:01:25,0.01,1.28,0.00,20.66,25.37,28.32,14.67,50.97,1012.78,2044.16,3015.16,2828.02,3122.71,600.39,599.00,29.98,0000 0000 0000 0000 000000
2016-05-24 06:06:27,0.03,1.28,0.00,20.66,25.37,28.33,14.67,50.99,1012.75,2044.06,3014.65,2827.69,3122.01,599.89,598.40,30.03,0000 0000 0000 0000 000000
2016-05-24 06:11:28,0.03,1.28,0.00,20.65,25.39,28.35,14.67,50.96,1012.75,2044.03,3013.97,2827.03,3121.29,600.04,598.61,30.08,0000 0000 0000 0000 000000
2016-05-24 06:16:29,0.03,1.28,0.00,20.65,25.40,28.35,14.72,50.83,1012.80,2044.02,3013.34,2826.72,3120.84,600.33,598.86,30.13,0000 0000 0000 0000 000000
2016-05-24 06:21:31,0.04,1.29,0.00,20.66,25.40,28.37,14.61,50.88,1012.92,2044.02,3012.68,2826.03,3120.06,599.86,598.46,30.18,0000 0000 0000 0000 000000
2016-05-24 06:26:32,0.03,1.29,0.00,20.67,25.42,28.36,14.76,51.05,1012.99,2044.01,3012.03,2825.79,3119.36,600.14,598.76,30.23,0000 0000 0000 0000 000000
2016-05-24 06:31:34,0.04,1.29,0.00,20.68,25.42,28.37,14.74,50.93,1013.11,2044.00,3011.36,2825.07,3118.81,600.05,598.68,30.28,0000 0000 0000 0000 000000
2016-05-24 06:36:35,0.01,1.29,0.00,20.68,25.43,28.39,14.61,51.01,1013.18,2044.00,3010.99,2824.95,3118.12,599.84,598.68,30.33,0000 0000 0000 0000 000000
2016-05-24 06:41:36,0.05,1.29,0.00,20.69,25.45,28.41,14.63,50.97,1013.19,2044.00,3010.25,2824.19,3117.61,600.08,598.77,30.38,0000 0000 0000 0000 000000
2016-05-24 06:46:38,0.02,1.29,0.00,20.68,25.45,28.41,14.75,50.92,1013.20,2044.00,3009.62,2823.95,3116.96,600.02,598.74,30.43,0000 0000 0000 0000 000000
2016-05-24 06:51:39,0.05,1.30,0.00,20.68,25.46,28.41,14.67,50.81,1013.20,2044.00,3009.01,2823.18,3116.20,599.99,598.74,30.48,0000 0000 0000 0000 000000
2016-05-24 06:56:40,0.01,1.30,0.00,20.69,25.47,28.42,14.61,50.62,1013.20,2044.00,3008.64,2822.99,3115.87,599.89,598.57,30.53,0000 0000 0000 0000 000000
2016-05-24 07:01:41,0.04,1.30,0.00,20.70,25.47,28.43,14.64,50.76,1013.20,2043.99,3008.01,2822.41,3115.08,600.05,598.73,30.58,0000 0000 0000 0000 000000
2016-05-24 07:06:42,0.02,1.30,0.00,20.70,25.49,28.43,14.69,50.73,1013.20,2043.99,3007.49,2822.01,3114.71,600.32,599.11,30.63,0000 0000 0000 0000 000000
2016-05-24 07:11:43,0.02,1.30,0.00,20.71,25.50,28.45,14.74,50.94,1013.20,2043.99,3007.00,2821.81,3114.04,600.23,598.83,30.68,0000 0000 0000 0000 000000
2016-05-24 07:16:45,0.05,1.30,0.00,20.72,25.50,28.45,14.67,50.83,1013.20,2043.99,3006.29,2821.06,3113.39,600.36,599.00,30.73,0000 0000 0000 0000 000000
2016-05-24 07:21:46,0.01,1.31,0.00,20.72,25.51,28.46,14.63,50.75,1013.20,2043.96,3005.84,2820.88,3112.90,599.95,598.61,30.78,0000 0000 0000 0000 000000
2016-05-24 07:26:47,0.05,1.31,0.00,20.72,25.52,28.46,14.72,50.83,1013.20,2043.95,3005.07,2820.10,3112.10,600.30,598.97,30.83,0000 0000 0000 0000 000000
2016-05-24 07:31:48,0.02,1.31,0.00,20.71,25.52,28.48,14.74,51.05,1013.20,2043.95,3004.57,2819.98,3111.66,600.22,598.90,30.88,0000 0000 0000 0000 000000
2016-05-24 07:36:49,0.04,1.31,0.00,20.71,25.52,28.49,14.70,51.19,1013.20,2043.94,3003.88,2819.27,3110.97,600.29,598.97,30.93,0000 0000 0000 0000 000000
2016-05-24 07:41:51,0.03,1.31,0.00,20.69,25.53,28.48,14.59,50.85,1013.20,2043.93,3003.05,2818.97,3110.15,600.10,598.71,30.98,0000 0000 0000 0000 000000
2016-05-24 07:46:51,0.05,1.32,0.00,20.69,25.54,28.49,14.69,51.08,1013.20,2043.94,3002.27,2818.26,3109.58,599.91,598.60,31.03,0000 0000 0000 0000 000000
2016-05-24 07:51:52,0.01,1.32,0.00,20.69,25.54,28.49,14.71,51.13,1013.20,2043.92,3001.65,2817.99,3108.94,600.21,598.99,31.08,0000 0000 0000 0000 000000
2016-05-24 07:56:54,0.03,1.32,0.00,20.69,25.55,28.50,14.69,50.88,1013.20,2043.69,3000.93,2817.23,3108.12,599.82,598.52,31.13,0000 0000 0000 0000 000000
2016-05-24 08:01:55,0.04,1.32,0.00,20.69,25.55,28.50,14.68,50.86,1013.20,2043.79,3000.13,2816.99,3107.41,599.94,598.74,31.18,0000 0000 0000 0000 000000
2016-05-24 08:06:56,0.03,1.32,0.00,20.68,25.55,28.49,14.66,50.86,1013.20,2043.68,2999.53,2816.42,3106.93,599.95,598.68,31.23,0000 0000 0000 0000 000000
2016-05-24 08:11:58,0.02,1.32,0.00,20.67,25.55,28.53,14.63,50.88,1013.20,2043.65,2998.97,2816.01,3106.14,599.94,598.59,31.28,0000 0000 0000 0000 000000
2016-05-24 08:16:59,0.03,1.33,0.00,20.65,25.55,28.51,14.72,50.93,1013.20,2043.63,2998.17,2815.80,3105.78,600.24,598.98,31.33,0000 0000 0000 0000 000000
2016-05-24 08:22:00,0.02,1.33,0.00,20.64,25.55,28.51,14.59,50.84,1013.20,2043.59,2997.88,2815.10,3105.06,599.53,598.42,31.38,0000 0000 0000 0000 000000
2016-05-24 08:27:01,0.04,1.33,0.00,20.65,25.55,28.52,14.62,50.96,1013.20,2043.68,2997.18,2815.00,3104.85,599.83,598.56,31.43,0000 0000 0000 0000 000000
2016-05-24 08:32:03,0.03,1.33,0.00,20.63,25.55,28.51,14.67,50.81,1013.20,2043.81,2996.98,2814.89,3104.12,599.83,598.58,31.48,0000 0000 0000 0000 000000
2016-05-24 08:37:04,0.02,1.33,0.00,20.63,25.55,28.51,14.78,50.98,1013.20,2043.55,2996.28,2814.11,3103.93,600.02,598.76,31.53,0000 0000 0000 0000 000000
2016-05-24 08:42:05,0.03,1.33,0.00,20.63,25.55,28.53,14.66,50.95,1013.22,2043.53,2995.85,2813.99,3103.11,599.96,598.88,31.59,0000 0000 0000 0000 000000
2016-05-24 08:47:07,0.02,1.33,0.00,20.61,25.55,28.52,14.63,50.88,1013.25,2043.72,2995.45,2813.78,3103.00,600.17,599.07,31.64,0000 0000 0000 0000 000000
2016-05-24 08:52:08,0.02,1.34,0.00,20.62,25.55,28.52,14.71,50.95,1013.25,2043.65,2995.05,2813.08,3102.84,600.25,599.06,31.69,0000 0000 0000 0000 000000
2016-05-24 08:57:09,0.02,1.34,0.00,20.60,25.55,28.54,14.70,50.96,1013.23,2043.70,2995.01,2813.00,3102.22,599.99,598.87,31.74,0000 0000 0000 0000 000000
2016-05-24 09:02:10,-0.01,1.34,0.00,20.58,25.54,28.52,14.78,50.92,1013.33,2043.61,2995.00,2812.99,3102.01,600.35,599.27,31.79,0000 0000 0000 0000 000000
2016-05-24 09:07:11,0.01,1.34,0.00,20.58,25.53,28.52,14.69,50.94,1013.31,2043.54,2994.98,2812.80,3102.00,599.79,598.81,31.84,0000 0000 0000 0000 000000
2016-05-24 09:12:12,0.03,1.34,0.00,20.56,25.52,28.51,14.73,51.17,1013.24,2043.84,2995.00,2812.39,3102.00,600.07,599.05,31.89,0000 0000 0000 0000 000000
2016-05-24 09:17:14,-0.02,1.34,0.00,20.54,25.52,28.52,14.74,51.20,1013.40,2043.69,2994.99,2812.03,3101.99,600.38,599.42,31.94,0000 0000 0000 0000 000000
2016-05-24 09:22:15,0.01,1.34,0.00,20.52,25.52,28.53,14.59,50.73,1013.48,2043.58,2994.78,2812.00,3101.68,599.70,598.86,31.99,0000 0000 0000 0000 000000
2016-05-24 09:27:16,0.01,1.34,0.00,20.52,25.52,28.52,14.70,51.04,1013.45,2043.67,2994.59,2812.00,3101.20,599.78,598.99,32.04,0000 0000 0000 0000 000000
2016-05-24 09:32:17,0.03,1.34,0.00,20.51,25.52,28.54,14.64,50.91,1013.50,2043.85,2994.15,2811.98,3101.02,599.73,599.07,32.09,0000 0000 0000 0000 000000
2016-05-24 09:37:18,0.01,1.34,0.00,20.49,25.50,28.52,14.66,50.73,1013.50,2043.94,2994.02,2811.92,3101.00,599.96,599.22,32.14,0000 0000 0000 0000 000000
2016-05-24 09:42:19,0.02,1.34,0.00,20.48,25.50,28.51,14.61,50.87,1013.42,2043.92,2994.02,2811.42,3101.00,599.88,599.34,32.19,0000 0000 0000 0000 000000
2016-05-24 09:47:20,0.01,1.34,0.00,20.44,25.50,28.53,14.66,50.83,1013.57,2043.93,2993.98,2811.03,3100.91,599.65,599.10,32.24,0000 0000 0000 0000 000000
2016-05-24 09:52:21,0.00,1.34,0.00,20.44,25.49,28.52,14.71,50.90,1013.64,2043.95,2993.97,2811.00,3100.75,600.32,599.75,32.29,0000 0000 0000 0000 000000
2016-05-24 09:57:22,0.02,1.34,0.00,20.43,25.48,28.51,14.78,51.02,1013.58,2043.96,2993.61,2811.00,3100.28,600.10,599.61,32.34,0000 0000 0000 0000 000000
2016-05-24 10:02:24,0.01,1.34,0.00,20.39,25.47,28.51,14.63,50.92,1013.41,2043.94,2993.06,2810.96,3100.01,599.74,599.16,32.39,0000 0000 0000 0000 000000
2016-05-24 10:07:25,0.02,1.35,0.00,20.39,25.47,28.53,14.76,50.99,1013.34,2043.98,2992.97,2810.46,3099.94,600.11,599.60,32.44,0000 0000 0000 0000 000000
2016-05-24 10:12:26,0.02,1.35,0.00,20.37,25.45,28.52,14.72,50.91,1013.35,2043.98,2992.55,2810.03,3099.33,599.93,599.37,32.49,0000 0000 0000 0000 000000
2016-05-24 10:17:27,0.01,1.35,0.00,20.36,25.45,28.54,14.74,51.15,1013.38,2043.98,2992.08,2810.00,3099.02,599.88,599.33,32.54,0000 0000 0000 0000 000000
2016-05-24 10:22:28,0.00,1.35,0.00,20.33,25.44,28.57,14.72,50.80,1013.49,2043.99,2992.00,2809.99,3099.00,599.82,599.48,32.59,0000 0000 0000 0000 000000
2016-05-24 10:27:29,0.00,1.35,0.00,20.32,25.42,28.54,14.74,51.10,1013.60,2043.99,2991.99,2809.87,3098.95,599.79,599.48,32.64,0000 0000 0000 0000 000000
2016-05-24 10:32:31,0.03,1.35,0.00,20.30,25.42,28.54,14.73,50.94,1013.66,2043.99,2991.73,2809.39,3098.61,600.08,600.01,32.69,0000 0000 0000 0000 000000
2016-05-24 10:37:32,0.02,1.35,0.00,20.28,25.41,28.56,14.72,50.99,1013.69,2043.99,2991.07,2809.05,3098.05,599.49,599.31,32.74,0000 0000 0000 0000 000000
2016-05-24 10:42:33,0.00,1.35,0.00,20.28,25.40,28.61,14.77,50.97,1013.69,2043.99,2990.99,2809.00,3098.00,600.14,599.91,32.79,0000 0000 0000 0000 000000
2016-05-24 10:47:35,0.00,1.35,0.00,20.26,25.39,28.63,14.70,50.89,1013.67,2043.99,2990.71,2809.00,3097.96,599.92,599.88,32.85,0000 0000 0000 0000 000000
2016-05-24 10:52:36,0.02,1.35,0.00,20.23,25.37,28.64,14.71,50.78,1013.66,2044.00,2990.08,2808.98,3097.41,599.68,599.59,32.90,0000 0000 0000 0000 000000
2016-05-24 10:57:37,0.01,1.35,0.00,20.21,25.37,28.59,14.75,50.92,1013.65,2044.01,2990.08,2808.93,3097.27,600.03,600.00,32.95,0000 0000 0000 0000 000000
2016-05-24 11:02:39,0.01,1.35,0.00,20.18,25.35,28.66,14.78,50.83,1013.64,2044.02,2990.00,2808.70,3097.03,600.06,600.00,33.00,0000 0000 0000 0000 000000
2016-05-24 11:07:40,0.01,1.35,0.00,20.17,25.35,28.69,14.74,50.94,1013.68,2044.03,2989.99,2808.25,3097.00,600.12,600.21,33.05,0000 0000 0000 0000 000000
2016-05-24 11:12:41,0.01,1.35,0.00,20.15,25.32,28.67,14.72,50.73,1013.68,2044.07,2989.95,2808.07,3097.00,599.75,599.83,33.10,0000 0000 0000 0000 000000
2016-05-24 11:17:43,0.03,1.36,0.00,20.14,25.32,28.66,14.76,50.75,1013.66,2044.21,2989.40,2808.02,3096.90,600.06,600.19,33.15,0000 0000 0000 0000 000000
2016-05-24 11:22:44,0.04,1.36,0.00,20.12,25.31,28.62,14.77,50.97,1013.68,2044.55,2989.07,2808.01,3096.67,599.89,600.08,33.20,0000 0000 0000 0000 000000
2016-05-24 11:27:45,0.01,1.36,0.00,20.10,25.30,28.61,14.74,50.85,1013.69,2044.77,2989.17,2808.01,3096.62,599.57,599.81,33.25,0000 0000 0000 0000 000000
2016-05-24 11:32:46,0.01,1.36,0.00,20.08,25.28,28.62,14.71,50.95,1013.69,2044.90,2989.25,2808.00,3096.58,599.92,600.15,33.30,0000 0000 0000 0000 000000
2016-05-24 11:37:48,0.01,1.36,0.00,20.07,25.27,28.61,14.80,51.17,1013.69,2044.94,2989.11,2808.00,3096.32,600.47,600.73,33.35,0000 0000 0000 0000 000000
2016-05-24 11:42:49,0.00,1.36,0.00,20.04,25.26,28.57,14.78,51.01,1013.68,2044.96,2989.04,2807.99,3096.11,600.01,600.31,33.40,0000 0000 0000 0000 000000
2016-05-24 11:47:50,0.00,1.36,0.00,20.02,25.25,28.58,14.82,51.27,1013.62,2044.98,2989.01,2807.98,3096.03,600.40,600.68,33.45,0000 0000 0000 0000 000000
2016-05-24 11:52:51,0.00,1.36,0.00,19.99,25.22,28.57,14.74,51.20,1013.59,2044.99,2989.00,2807.97,3096.00,599.92,600.26,33.50,0000 0000 0000 0000 000000
2016-05-24 11:57:52,0.00,1.36,0.00,19.97,25.22,28.55,14.75,51.11,1013.57,2044.99,2989.00,2807.95,3096.00,600.11,600.63,33.55,0000 0000 0000 0000 000000
2016-05-24 12:02:53,0.00,1.36,0.00,19.96,25.20,28.51,14.76,51.02,1013.35,2044.99,2989.00,2807.94,3096.00,599.85,600.13,33.60,0000 0000 0000 0000 000000
2016-05-24 12:07:54,0.03,1.36,0.00,19.93,25.18,28.52,14.87,51.24,1013.29,2044.99,2988.49,2807.62,3095.91,600.20,600.49,33.65,0000 0000 0000 0000 000000
2016-05-24 12:12:56,-0.00,1.36,0.00,19.91,25.17,28.52,14.79,51.08,1013.25,2045.00,2988.63,2807.31,3095.92,600.14,600.48,33.70,0000 0000 0000 0000 000000
2016-05-24 12:17:57,0.02,1.36,0.00,19.88,25.15,28.49,14.79,51.03,1013.25,2045.01,2988.22,2807.09,3095.74,600.23,600.61,33.75,0000 0000 0000 0000 000000
2016-05-24 12:22:58,0.00,1.36,0.00,19.87,25.13,28.49,14.70,50.92,1013.24,2045.02,2988.06,2807.03,3095.56,599.76,600.13,33.81,0000 0000 0000 0000 000000
2016-05-24 12:27:59,0.00,1.36,0.00,19.84,25.12,28.45,14.77,51.01,1013.25,2045.05,2988.04,2807.02,3095.21,599.98,600.25,33.86,0000 0000 0000 0000 000000
2016-05-24 12:33:00,0.01,1.37,0.00,19.83,25.10,28.43,14.83,51.09,1013.24,2045.12,2988.02,2807.01,3095.20,600.03,600.52,33.91,0000 0000 0000 0000 000000
2016-05-24 12:38:02,0.05,1.37,0.00,19.83,25.08,28.41,14.76,51.20,1013.21,2045.48,2988.01,2807.00,3095.09,600.12,600.58,33.96,0000 0000 0000 0000 000000
2016-05-24 12:43:03,0.01,1.37,0.00,19.80,25.06,28.40,14.76,51.00,1013.22,2045.78,2988.00,2807.00,3095.03,600.11,600.66,34.01,0000 0000 0000 0000 000000
2016-05-24 12:48:05,0.02,1.37,0.00,19.76,25.05,28.36,14.83,51.09,1013.22,2045.92,2988.00,2807.00,3095.01,600.12,600.72,34.06,0000 0000 0000 0000 000000
2016-05-24 12:53:06,0.00,1.37,0.00,19.74,25.03,28.38,14.71,51.27,1013.23,2045.96,2987.99,2806.99,3095.00,599.84,600.56,34.11,0000 0000 0000 0000 000000
2016-05-24 12:58:07,0.00,1.37,0.00,19.72,25.01,28.31,14.69,51.07,1013.23,2045.98,2987.99,2806.99,3095.01,599.86,600.57,34.16,0000 0000 0000 0000 000000